When you browse on this site, cookies collect data to enhance your experience and personalize the content and advertising you see.
Visit our Privacy Policy to learn more. By continuing to use the site, you agree to this use of cookies and data.
  • In Hungary
  • List of Countries
  • For 7 days
  • Water Temperature
  • Weather Map
  • News
  • Weather Widgets
  • user-avatar
    Login

    Hourly Weather Belen

    Today, 10 December, Tuesday

    Time Temperature Precipitation Wind Pressure Humidity
    00:00 +10°C° 0 mm 1 mps 542 mmHg 93%
    01:00 +9°C° 0 mm 1 mps 542 mmHg 92%
    02:00 +9°C° 0 mm 1 mps 541 mmHg 91%
    03:00 +8°C° 0 mm 1 mps 541 mmHg 90%
    04:00 +8°C° 0 mm 1 mps 541 mmHg 88%
    05:00 +9°C° 0 mm 1 mps 542 mmHg 85%
    06:00 +9°C° 0 mm 1 mps 542 mmHg 82%
    07:00 +10°C° 0 mm 1 mps 543 mmHg 79%
    08:00 +13°C° 0 mm 1 mps 545 mmHg 68%
    09:00 +16°C° 0 mm 1 mps 547 mmHg 57%
    10:00 +20°C° 0 mm 1 mps 549 mmHg 46%
    11:00 +21°C° 0 mm 1 mps 548 mmHg 47%
    12:00 +21°C° 0 mm 1 mps 548 mmHg 48%
    13:00 +20°C° 0 mm 2 mps 547 mmHg 50%
    14:00 +20°C° 0.4 mm 1 mps 546 mmHg 61%
    15:00 +18°C° 0.4 mm 1 mps 545 mmHg 72%
    16:00 +16°C° 0.4 mm 1 mps 544 mmHg 83%
    17:00 +15°C° 0.5 mm 1 mps 543 mmHg 87%
    18:00 +12°C° 0.5 mm 0 mps 543 mmHg 91%
    19:00 +11°C° 0.5 mm 0 mps 543 mmHg 96%
    20:00 +11°C° 0.6 mm 0 mps 543 mmHg 96%
    21:00 +10°C° 0.6 mm 0 mps 543 mmHg 96%
    22:00 +10°C° 0.6 mm 0 mps 543 mmHg 96%
    23:00 +10°C° 0 mm 1 mps 543 mmHg 96%

    Tomorrow, 11 December, Wednesday

    Time Temperature Precipitation Wind Pressure Humidity
    00:00 +10°C° 0 mm 1 mps 542 mmHg 96%
    01:00 +10°C° 0 mm 1 mps 542 mmHg 96%
    02:00 +10°C° 0 mm 1 mps 542 mmHg 96%
    03:00 +10°C° 0 mm 1 mps 542 mmHg 96%
    04:00 +10°C° 0 mm 1 mps 542 mmHg 95%
    05:00 +10°C° 0 mm 1 mps 543 mmHg 93%
    06:00 +11°C° 0 mm 1 mps 544 mmHg 92%
    07:00 +10°C° 0 mm 0 mps 544 mmHg 90%
    08:00 +12°C° 0.1 mm 0 mps 545 mmHg 84%
    09:00 +14°C° 0.1 mm 0 mps 546 mmHg 77%
    10:00 +16°C° 0.1 mm 0 mps 547 mmHg 71%
    11:00 +16°C° 0.5 mm 0 mps 547 mmHg 72%
    12:00 +18°C° 0.5 mm 1 mps 546 mmHg 72%
    13:00 +19°C° 0.5 mm 1 mps 546 mmHg 72%
    14:00 +18°C° 0.8 mm 1 mps 545 mmHg 77%
    15:00 +16°C° 0.8 mm 1 mps 544 mmHg 83%
    16:00 +15°C° 0.8 mm 1 mps 543 mmHg 88%
    17:00 +14°C° 0.4 mm 1 mps 543 mmHg 91%
    18:00 +13°C° 0.4 mm 1 mps 543 mmHg 94%
    19:00 +12°C° 0.4 mm 1 mps 542 mmHg 97%
    20:00 +11°C° 0.1 mm 1 mps 542 mmHg 97%
    21:00 +10°C° 0.1 mm 0 mps 543 mmHg 96%
    22:00 +9°C° 0.1 mm 0 mps 543 mmHg 96%
    23:00 +9°C° 0.1 mm 0 mps 542 mmHg 96%

    Day after tomorrow, 12 December, Thursday

    Time Temperature Precipitation Wind Pressure Humidity
    00:00 +9°C° 0.1 mm 0 mps 542 mmHg 96%
    01:00 +9°C° 0.1 mm 0 mps 542 mmHg 97%
    02:00 +8°C° 0 mm 0 mps 541 mmHg 97%
    03:00 +8°C° 0 mm 0 mps 541 mmHg 97%
    04:00 +8°C° 0 mm 0 mps 541 mmHg 97%
    05:00 +9°C° 0 mm 0 mps 542 mmHg 96%
    06:00 +9°C° 0 mm 0 mps 542 mmHg 95%
    07:00 +10°C° 0 mm 0 mps 543 mmHg 94%
    08:00 +12°C° 0 mm 0 mps 544 mmHg 85%
    09:00 +15°C° 0 mm 1 mps 546 mmHg 76%
    10:00 +18°C° 0 mm 1 mps 547 mmHg 67%
    11:00 +19°C° 0.1 mm 1 mps 547 mmHg 65%
    12:00 +19°C° 0.1 mm 1 mps 546 mmHg 63%
    13:00 +19°C° 0.1 mm 2 mps 546 mmHg 60%
    14:00 +18°C° 0.2 mm 2 mps 545 mmHg 66%
    15:00 +17°C° 0.2 mm 2 mps 544 mmHg 72%
    16:00 +16°C° 0.2 mm 2 mps 543 mmHg 77%
    17:00 +14°C° 0.2 mm 1 mps 543 mmHg 84%
    18:00 +13°C° 0.2 mm 1 mps 542 mmHg 90%
    19:00 +11°C° 0.2 mm 1 mps 542 mmHg 97%
    20:00 +10°C° 0 mm 1 mps 542 mmHg 96%
    21:00 +9°C° 0 mm 0 mps 542 mmHg 96%
    22:00 +8°C° 0 mm 0 mps 542 mmHg 96%
    23:00 +8°C° 0 mm 0 mps 541 mmHg 95%

    13 December, Friday

    Time Temperature Precipitation Wind Pressure Humidity
    00:00 +8°C° 0 mm 0 mps 541 mmHg 95%
    01:00 +8°C° 0 mm 0 mps 541 mmHg 94%
    02:00 +7°C° 0 mm 0 mps 541 mmHg 94%
    03:00 +7°C° 0 mm 0 mps 540 mmHg 94%
    04:00 +7°C° 0 mm 0 mps 540 mmHg 94%
    05:00 +8°C° 0 mm 0 mps 541 mmHg 92%
    06:00 +8°C° 0 mm 0 mps 542 mmHg 90%
    07:00 +9°C° 0 mm 0 mps 542 mmHg 88%
    08:00 +11°C° 0 mm 0 mps 544 mmHg 78%
    09:00 +14°C° 0 mm 0 mps 545 mmHg 67%
    10:00 +19°C° 0 mm 1 mps 547 mmHg 57%
    11:00 +19°C° 0.1 mm 1 mps 546 mmHg 58%
    12:00 +19°C° 0.1 mm 1 mps 546 mmHg 59%
    13:00 +19°C° 0.1 mm 1 mps 545 mmHg 59%
    14:00 +18°C° 0.3 mm 1 mps 544 mmHg 66%
    15:00 +16°C° 0.3 mm 1 mps 544 mmHg 73%
    16:00 +15°C° 0.3 mm 1 mps 543 mmHg 79%
    17:00 +14°C° 0.2 mm 1 mps 542 mmHg 85%
    18:00 +12°C° 0.2 mm 1 mps 542 mmHg 91%
    19:00 +10°C° 0.2 mm 0 mps 542 mmHg 96%
    20:00 +10°C° 0.2 mm 0 mps 542 mmHg 96%
    21:00 +9°C° 0.2 mm 0 mps 542 mmHg 95%
    22:00 +9°C° 0.2 mm 0 mps 542 mmHg 95%
    23:00 +8°C° 0.1 mm 0 mps 542 mmHg 94%

    14 December, Saturday

    Time Temperature Precipitation Wind Pressure Humidity
    00:00 +8°C° 0.1 mm 0 mps 542 mmHg 94%
    01:00 +8°C° 0.1 mm 0 mps 541 mmHg 94%
    02:00 +8°C° 0.1 mm 0 mps 541 mmHg 93%
    03:00 +8°C° 0.1 mm 0 mps 541 mmHg 93%
    04:00 +8°C° 0.1 mm 0 mps 541 mmHg 93%
    05:00 +9°C° 0 mm 0 mps 542 mmHg 91%
    06:00 +9°C° 0 mm 0 mps 542 mmHg 90%
    07:00 +10°C° 0 mm 0 mps 543 mmHg 88%
    08:00 +12°C° 0.1 mm 0 mps 545 mmHg 81%
    09:00 +14°C° 0.1 mm 0 mps 546 mmHg 73%
    10:00 +19°C° 0.1 mm 1 mps 547 mmHg 65%
    11:00 +18°C° 0.4 mm 1 mps 547 mmHg 69%
    12:00 +18°C° 0.4 mm 1 mps 546 mmHg 72%
    13:00 +18°C° 0.4 mm 1 mps 545 mmHg 75%
    14:00 +16°C° 0.7 mm 1 mps 544 mmHg 79%
    15:00 +15°C° 0.7 mm 1 mps 543 mmHg 83%
    16:00 +15°C° 0.7 mm 1 mps 543 mmHg 87%
    17:00 +14°C° 0.6 mm 1 mps 543 mmHg 90%
    18:00 +12°C° 0.6 mm 0 mps 543 mmHg 94%
    19:00 +11°C° 0.6 mm 0 mps 543 mmHg 97%
    20:00 +11°C° 1.4 mm 0 mps 543 mmHg 97%
    21:00 +11°C° 1.4 mm 0 mps 544 mmHg 97%
    22:00 +10°C° 1.4 mm 0 mps 544 mmHg 96%
    23:00 +10°C° 0.5 mm 0 mps 544 mmHg 96%

    15 December, Sunday

    Time Temperature Precipitation Wind Pressure Humidity
    00:00 +10°C° 0.5 mm 0 mps 543 mmHg 96%
    01:00 +10°C° 0.5 mm 0 mps 543 mmHg 96%
    02:00 +10°C° 0.1 mm 0 mps 543 mmHg 96%
    03:00 +10°C° 0.1 mm 0 mps 543 mmHg 96%
    04:00 +10°C° 0.1 mm 0 mps 542 mmHg 96%
    05:00 +10°C° 0 mm 0 mps 543 mmHg 94%
    06:00 +10°C° 0 mm 0 mps 544 mmHg 93%
    07:00 +11°C° 0 mm 0 mps 544 mmHg 92%
    08:00 +13°C° 0.1 mm 0 mps 545 mmHg 85%
    09:00 +15°C° 0.1 mm 0 mps 547 mmHg 79%
    10:00 +18°C° 0.1 mm 1 mps 548 mmHg 72%
    11:00 +18°C° 0.9 mm 1 mps 547 mmHg 75%
    12:00 +18°C° 0.9 mm 1 mps 546 mmHg 77%
    13:00 +18°C° 0.9 mm 1 mps 545 mmHg 80%
    14:00 +16°C° 1.3 mm 1 mps 545 mmHg 83%
    15:00 +16°C° 1.3 mm 1 mps 544 mmHg 86%
    16:00 +15°C° 1.3 mm 1 mps 543 mmHg 89%
    17:00 +14°C° 1.6 mm 1 mps 543 mmHg 91%
    18:00 +13°C° 1.6 mm 1 mps 543 mmHg 94%
    19:00 +12°C° 1.6 mm 1 mps 543 mmHg 96%
    20:00 +12°C° 2.5 mm 1 mps 543 mmHg 96%
    21:00 +10°C° 2.5 mm 0 mps 544 mmHg 95%
    22:00 +10°C° 2.5 mm 0 mps 544 mmHg 95%
    23:00 +10°C° 0.2 mm 0 mps 543 mmHg 95%
    Show more